COSMOS 2251 DEB, 34626

Orbit data source: Space-Track

COSMOS 2251 DEB, 34626 is space debris in LEO originally from a launch on Wed, 16 Jun 1993 UTC launched from the Plesetsk Missile And Space Complex (PKMTR). The debris from Iridium 33, an American commercial communications satellite, has been tracked extensively since its accidental collision with the defunct Russian satellite Cosmos 2251 in 2009. This event, occurring at high speed in low Earth orbit (LEO), generated thousands of pieces of space debris, significantly increasing the risk of further collisions. The Iridium 33 debris cloud has impacted space traffic management and orbital debris mitigation strategies, making it a subject of ongoing study in space situational awareness.

Loading next visibility...
Identifier
34626, 1993-036WX
Orbit
LEO
Country
Flag of CISCIS
Related business
Manufacturer
Unknown
Mission
Spacecraft
Bus & Motor
Unknown
Mass
Unknown
Launch date (UTC)
1993-06-16 (33 years ago)
Launch vehicle
Unknown
Launch site
Plesetsk Missile And Space Complex (PKMTR)
Object type
Payload
Rocket body
Debris
Shape & HBR
Unknown shape, 0.1 m
Radar Cross Section
Small (<0.1 m²)

Expand to show TLE details & history
Last TLE update: 10 hours ago

TLE from 10 hours ago
0 COSMOS 2251 DEB
1 34626U 93036WX  26170.41304502  .00003417  00000-0  51776-3 0  9991
2 34626  74.0476 316.3644 0027925   0.8425  30.3013 14.74301500919231
Epoch: 2026-06-19T09:54Z
TLE epoch observation values (Epoch: 2026-06-19T09:54:47.089Z)
Latitude
30.03267°
Longitude
-90.51444°
Altitude
633.922 km
Speed
7.553 km/s
True Right ascension
21h 43m 17s
True Declination
29° 52' 53"
Sunlit
Object was in daylight at epoch
Visualization orbit readout
Latitude
Unknown
Longitude
Unknown
Altitude
Unknown
Speed
Unknown
Apparent Right ascension
Unknown
Apparent Declination
Unknown
Sunlit
N/A
Visualization observer readout
Local Sidereal Time
06:28:30
Azimuth
Unknown
Elevation
Unknown
Doppler factor
Unknown
Orbital elements
Apogee altitude
664.562 km
Perigee altitude
625.338 km
Semi-major axis
7,023.087 km
Eccentricity
0.00279
Inclination
74.0476°
RAAN
316.3644°
Arg. of periapsis
0.8425°
True anomaly
30.46324°
Mean anomaly
30.3013°
Eccentric anomaly
30.38222°
Mean motion
3.68766 °/min
Orbital period
97.62 mins
BSTAR
0.00051776

Documentation

Showing up to 5 results
|